Change the Weather History Date:

Monday, March 11, 2013

  Actual Average Record
Temperature  
Mean Temperature 24 °F -  
Max Temperature 30 °F 40 °F 67 °F (1990)
Min Temperature 19 °F 22 °F -7 °F (1956)
Degree Days  
Heating Degree Days 40    
Moisture  
Dew Point 20 °F    
Average Humidity 82    
Maximum Humidity 93    
Minimum Humidity 64    
Precipitation  
Precipitation 0.00 in - - ()
Sea Level Pressure  
Sea Level Pressure 29.86 in    
Wind  
Wind Speed 16 mph (NW)    
Max Wind Speed 22 mph    
Max Gust Speed 25 mph    
Visibility 10 miles    
Events Snow    
Averages and records for this station are not official NWS values.
T = Trace of Precipitation, MM = Missing Value Source: NWS Daily Summary

Daily Weather History Graph

Daily Weather History Graph

Search for Another Location

Airport or City:

Trip Planner

Search our weather history database for the weather conditions in past years. The results will help you decide how hot, cold, wet, or windy it might be!

Date:

Astronomy

Mar. 11, 2013 Rise Set
Actual Time 7:41 AM CDT 7:25 PM CDT
Civil Twilight 7:13 AM CDT 7:53 PM CDT
Nautical Twilight 6:40 AM CDT 8:26 PM CDT
Astronomical Twilight 6:07 AM CDT 9:00 PM CDT
Moon 7:15 AM CDT (3/11) 7:40 PM CDT (3/11)
Length of Visible Light 12h 39m
Length of Day
11h 43m
Waning Crescent, 0% of the Moon is Illuminated
Mar 11
Waning Crescent
Mar 11
New
Mar 19
First Quarter
Mar 27
Full
Apr 2
Last Quarter

Hourly Weather History & Observations

Time (CDT) Temp. Windchill Dew Point Humidity Pressure Visibility Wind Dir Wind Speed Gust Speed Precip Events Conditions
12:35 AM 23.0 °F 8.0 °F 21.2 °F 93% 29.90 in 10.0 mi North 20.7 mph - N/A   Light Freezing Rain
12:55 AM 23.0 °F 8.3 °F 19.4 °F 86% 29.90 in 10.0 mi North 19.6 mph 25.3 mph N/A   Light Freezing Rain
1:15 AM 23.0 °F 8.7 °F 19.4 °F 86% 29.89 in 10.0 mi North 18.4 mph - N/A   Light Freezing Rain
1:35 AM 23.0 °F 8.3 °F 21.2 °F 93% 29.89 in 10.0 mi NNW 19.6 mph - N/A   Light Freezing Rain
1:55 AM 23.0 °F 9.2 °F 21.2 °F 93% 29.88 in 10.0 mi NNW 17.3 mph - N/A   Light Freezing Rain
2:15 AM 23.0 °F 10.6 °F 21.2 °F 93% 29.87 in 10.0 mi NNW 13.8 mph 19.6 mph N/A   Light Freezing Rain
2:35 AM 23.0 °F 9.2 °F 21.2 °F 93% 29.88 in 10.0 mi NNW 17.3 mph - N/A   Light Freezing Rain
2:55 AM 24.8 °F 11.1 °F 21.2 °F 86% 29.87 in 10.0 mi NNW 18.4 mph - N/A   Light Freezing Rain
3:15 AM 24.8 °F 11.1 °F 21.2 °F 86% 29.87 in 10.0 mi NNW 18.4 mph - N/A   Light Freezing Rain
3:35 AM 23.0 °F 8.3 °F 21.2 °F 93% 29.86 in 10.0 mi NNW 19.6 mph - N/A   Light Freezing Rain
3:55 AM 23.0 °F 8.3 °F 21.2 °F 93% 29.86 in 10.0 mi NNW 19.6 mph - N/A   Light Freezing Rain
4:15 AM 23.0 °F 7.6 °F 19.4 °F 86% 29.85 in 10.0 mi NNW 21.9 mph - N/A   Light Freezing Rain
4:35 AM 23.0 °F 8.7 °F 19.4 °F 86% 29.85 in 10.0 mi NNW 18.4 mph - N/A   Light Freezing Rain
4:55 AM 23.0 °F 9.6 °F 21.2 °F 93% 29.85 in 10.0 mi NNW 16.1 mph - N/A   Light Freezing Rain
5:15 AM 23.0 °F 8.3 °F 19.4 °F 86% 29.84 in 10.0 mi NNW 19.6 mph - N/A   Light Freezing Rain
5:35 AM 21.2 °F 5.6 °F 19.4 °F 93% 29.84 in 10.0 mi NNW 20.7 mph - N/A   Light Freezing Rain
5:55 AM 23.0 °F 8.7 °F 19.4 °F 86% 29.85 in 10.0 mi NNW 18.4 mph - N/A Snow Light Snow
6:15 AM 23.0 °F 9.6 °F 19.4 °F 86% 29.85 in 10.0 mi NNW 16.1 mph - N/A   Overcast
6:35 AM 23.0 °F 9.6 °F 19.4 °F 86% 29.85 in 10.0 mi NNW 16.1 mph 23.0 mph N/A   Overcast
6:55 AM 23.0 °F 9.6 °F 19.4 °F 86% 29.85 in 10.0 mi NNW 16.1 mph - N/A   Overcast
7:15 AM 21.2 °F 7.3 °F 17.6 °F 86% 29.85 in 10.0 mi NNW 16.1 mph - N/A   Overcast
7:35 AM 21.2 °F 6.8 °F 17.6 °F 86% 29.85 in 10.0 mi NNW 17.3 mph - N/A   Overcast
7:55 AM 21.2 °F 6.0 °F 17.6 °F 86% 29.85 in 10.0 mi NNW 19.6 mph - N/A   Overcast
8:15 AM 21.2 °F 6.8 °F 17.6 °F 86% 29.86 in 10.0 mi NNW 17.3 mph - N/A   Overcast
8:35 AM 21.2 °F 6.8 °F 15.8 °F 80% 29.86 in 10.0 mi NNW 17.3 mph 23.0 mph N/A Snow Light Snow
8:55 AM 21.2 °F 8.3 °F 15.8 °F 80% 29.85 in 10.0 mi NW 13.8 mph 20.7 mph N/A   Overcast
9:15 AM 21.2 °F 7.8 °F 17.6 °F 86% 29.85 in 10.0 mi NW 15.0 mph - N/A   Overcast
9:35 AM 21.2 °F 6.8 °F 17.6 °F 86% 29.85 in 10.0 mi NW 17.3 mph - N/A   Overcast
9:55 AM 19.4 °F 5.5 °F 15.8 °F 86% 29.86 in 10.0 mi NW 15.0 mph 20.7 mph N/A   Overcast
10:15 AM 21.2 °F 7.8 °F 15.8 °F 80% 29.86 in 10.0 mi NW 15.0 mph - N/A   Overcast
10:35 AM 21.2 °F 8.3 °F 17.6 °F 86% 29.86 in 10.0 mi NW 13.8 mph 19.6 mph N/A   Overcast
10:55 AM 21.2 °F 8.3 °F 17.6 °F 86% 29.86 in 10.0 mi NNW 13.8 mph 20.7 mph N/A   Mostly Cloudy
11:15 AM 21.2 °F 7.8 °F 17.6 °F 86% 29.86 in 10.0 mi NW 15.0 mph - N/A   Scattered Clouds
11:35 AM 23.0 °F 10.1 °F 17.6 °F 80% 29.85 in 10.0 mi NNW 15.0 mph - N/A   Scattered Clouds
11:55 AM 23.0 °F 9.2 °F 17.6 °F 80% 29.85 in 10.0 mi NNW 17.3 mph - N/A   Mostly Cloudy
12:15 PM 24.8 °F 11.9 °F 19.4 °F 80% 29.84 in 10.0 mi NNW 16.1 mph - N/A   Mostly Cloudy
12:35 PM 24.8 °F 12.9 °F 19.4 °F 80% 29.84 in 10.0 mi NNW 13.8 mph - N/A   Mostly Cloudy
12:55 PM 24.8 °F 13.4 °F 19.4 °F 80% 29.84 in 10.0 mi NW 12.7 mph - N/A   Mostly Cloudy
1:15 PM 24.8 °F 14.0 °F 19.4 °F 80% 29.83 in 10.0 mi NW 11.5 mph - N/A   Partly Cloudy
1:35 PM 26.6 °F 15.2 °F 19.4 °F 74% 29.82 in 10.0 mi NW 13.8 mph - N/A   Clear
1:55 PM 26.6 °F 15.2 °F 19.4 °F 74% 29.81 in 10.0 mi NW 13.8 mph - N/A   Mostly Cloudy
2:15 PM 26.6 °F 15.7 °F 19.4 °F 74% 29.80 in 10.0 mi NW 12.7 mph - N/A   Mostly Cloudy
2:35 PM 28.4 °F 17.5 °F 21.2 °F 74% 29.81 in 10.0 mi WNW 13.8 mph - N/A   Mostly Cloudy
2:55 PM 28.4 °F 16.6 °F 21.2 °F 74% 29.81 in 10.0 mi NW 16.1 mph - N/A   Partly Cloudy
3:15 PM 28.4 °F 18.5 °F 23.0 °F 80% 29.81 in 10.0 mi NW 11.5 mph 18.4 mph N/A   Scattered Clouds
3:35 PM 28.4 °F 16.6 °F 21.2 °F 74% 29.81 in 10.0 mi NW 16.1 mph - N/A   Mostly Cloudy
3:55 PM 30.2 °F 19.8 °F 21.2 °F 69% 29.81 in 10.0 mi NW 13.8 mph - N/A   Overcast
4:15 PM 30.2 °F 19.3 °F 21.2 °F 69% 29.81 in 10.0 mi NNW 15.0 mph - N/A   Overcast
4:35 PM 30.2 °F 20.2 °F 21.2 °F 69% 29.82 in 10.0 mi NW 12.7 mph - N/A   Overcast
4:55 PM 30.2 °F 19.3 °F 21.2 °F 69% 29.82 in 10.0 mi NW 15.0 mph - N/A   Mostly Cloudy
5:15 PM 30.2 °F 20.8 °F 23.0 °F 75% 29.81 in 10.0 mi NW 11.5 mph - N/A   Overcast
5:35 PM 30.2 °F 20.8 °F 23.0 °F 75% 29.81 in 10.0 mi NW 11.5 mph - N/A   Mostly Cloudy
6:15 PM 30.2 °F 21.9 °F 21.2 °F 69% 29.83 in 10.0 mi WNW 9.2 mph 16.1 mph N/A   Mostly Cloudy
6:35 PM 30.2 °F 22.6 °F 19.4 °F 64% 29.84 in 10.0 mi WNW 8.1 mph - N/A   Scattered Clouds
6:55 PM 30.2 °F 21.9 °F 19.4 °F 64% 29.85 in 10.0 mi WNW 9.2 mph - N/A   Clear
7:15 PM 30.2 °F 22.6 °F 19.4 °F 64% 29.85 in 10.0 mi WNW 8.1 mph - N/A   Clear
7:35 PM 28.4 °F 21.2 °F 21.2 °F 74% 29.86 in 10.0 mi WNW 6.9 mph - N/A   Clear
7:55 PM 28.4 °F 22.2 °F 21.2 °F 74% 29.86 in 10.0 mi WNW 5.8 mph - N/A   Clear
8:15 PM 26.6 °F 20.0 °F 23.0 °F 86% 29.86 in 10.0 mi West 5.8 mph - N/A   Partly Cloudy
8:35 PM 26.6 °F 19.1 °F 23.0 °F 86% 29.87 in 10.0 mi West 6.9 mph - N/A   Mostly Cloudy
8:55 PM 26.6 °F 20.0 °F 23.0 °F 86% 29.89 in 10.0 mi West 5.8 mph - N/A   Mostly Cloudy
9:15 PM 26.6 °F 19.1 °F 23.0 °F 86% 29.88 in 10.0 mi WNW 6.9 mph - N/A   Mostly Cloudy
9:35 PM 26.6 °F 18.2 °F 23.0 °F 86% 29.89 in 10.0 mi WNW 8.1 mph - N/A   Scattered Clouds
9:55 PM 26.6 °F 18.2 °F 23.0 °F 86% 29.90 in 10.0 mi WNW 8.1 mph - N/A   Partly Cloudy
10:15 PM 26.6 °F 16.2 °F 23.0 °F 86% 29.90 in 10.0 mi WNW 11.5 mph - N/A   Clear
10:35 PM 26.6 °F 15.7 °F 21.2 °F 80% 29.91 in 10.0 mi NW 12.7 mph 19.6 mph N/A   Scattered Clouds
10:55 PM 28.4 °F 15.8 °F 23.0 °F 80% 29.91 in 10.0 mi NNW 18.4 mph - N/A   Overcast
11:15 PM 28.4 °F 16.6 °F 23.0 °F 80% 29.92 in 10.0 mi NNW 16.1 mph 25.3 mph N/A   Overcast
11:35 PM 28.4 °F 16.6 °F 23.0 °F 80% 29.92 in 10.0 mi NNW 16.1 mph 23.0 mph N/A   Overcast
11:55 PM 28.4 °F 17.5 °F 23.0 °F 80% 29.92 in 10.0 mi NNW 13.8 mph 21.9 mph N/A   Mostly Cloudy